Weather History for CYQY - October, 2012

Change the Weather History Date:

Monday, October 29, 2012

  Actual Average Record
Temperature  
Mean Temperature 51 °F -  
Max Temperature 52 °F 47 °F 66 °F (2003)
Min Temperature 50 °F 36 °F 29 °F (2013)
Degree Days  
Heating Degree Days 14    
Growing Degree Days 1 (Base 50)    
Moisture  
Dew Point 49 °F    
Average Humidity 90    
Maximum Humidity 94    
Minimum Humidity 83    
Precipitation  
Precipitation 0.04 in - - ()
Sea Level Pressure  
Sea Level Pressure 30.18 in    
Wind  
Wind Speed 13 mph ()    
Max Wind Speed 21 mph    
Max Gust Speed 32 mph    
Visibility 1.6 miles    
Events Fog , Rain    
Averages and records for this station are not official NWS values.
T = Trace of Precipitation, MM = Missing Value Source: Averaged Metar Reports

Daily Weather History Graph

Daily Weather History Graph

Search for Another Location

Airport or City:

Trip Planner

Search our weather history database for the weather conditions in past years. The results will help you decide how hot, cold, wet, or windy it might be!

Date:

Astronomy

Oct. 29, 2012 Rise Set
Actual Time 7:37 AM ADT 5:49 PM ADT
Civil Twilight 7:06 AM ADT 6:20 PM ADT
Nautical Twilight 6:30 AM ADT 6:55 PM ADT
Astronomical Twilight 5:56 AM ADT 7:30 PM ADT
Moon 5:36 PM ADT (10/29) 7:24 AM ADT (10/29)
Length of Visible Light 11h 14m
Length of Day
10h 12m
Full, 100% of the Moon is Illuminated
Oct 29
Full
Oct 29
Full
Nov 6
Last Quarter
Nov 13
New
Nov 20
First Quarter

Hourly Weather History & Observations

Time (ADT) Temp. Dew Point Humidity Pressure Visibility Wind Dir Wind Speed Gust Speed Precip Events Conditions
12:00 AM 51.8 °F 50.0 °F 94% 30.12 in 2.0 mi East 15.0 mph 20.7 mph N/A   Light Drizzle
1:00 AM 51.8 °F 50.0 °F 94% 30.12 in 1.5 mi East 12.7 mph 18.4 mph N/A   Light Drizzle
2:00 AM 51.8 °F 50.0 °F 94% 30.12 in 2.0 mi East 13.8 mph - N/A   Light Drizzle
3:00 AM 52 °F 49 °F 88% 30.12 in 2 mi East 12.7 mph - - Rain Light Drizzle
3:00 AM 51.8 °F 50.0 °F 94% 30.12 in 2.0 mi East 13.8 mph - N/A   Light Drizzle
4:00 AM 51.8 °F 50.0 °F 94% 30.13 in 1.0 mi East 11.5 mph 18.4 mph N/A   Light Drizzle
5:00 AM 51.8 °F 50.0 °F 94% 30.14 in 0.8 mi East 12.7 mph - N/A   Light Drizzle
5:43 AM - - N/A% - 0.8 mi East 11.5 mph 17.3 mph N/A   Light Drizzle
6:00 AM 51.8 °F 50.0 °F 94% 30.14 in 0.8 mi East 11.5 mph 17.3 mph N/A   Light Drizzle
7:00 AM 51.8 °F 48.2 °F 88% 30.15 in 0.5 mi East 11.5 mph 19.6 mph N/A Fog Light Drizzle
7:16 AM - - N/A% - 0.2 mi East 15.0 mph - N/A Fog Light Drizzle
7:32 AM - - N/A% - 0.5 mi East 13.8 mph 20.7 mph N/A Fog Light Drizzle
8:00 AM 51.8 °F 48.2 °F 88% 30.17 in 0.5 mi East 10.4 mph 18.4 mph N/A Fog Light Drizzle
9:00 AM 52 °F 49 °F 85% 30.18 in 0 mi East 13.8 mph - - Rain Light Drizzle
9:00 AM 51.8 °F 48.2 °F 88% 30.18 in 0.2 mi East 15.0 mph - N/A Fog Light Drizzle
10:00 AM 51.8 °F 48.2 °F 88% 30.19 in 0.5 mi East 12.7 mph 23.0 mph N/A Fog Light Drizzle
10:53 AM - - N/A% - 0.8 mi East 18.4 mph 24.2 mph N/A   Light Drizzle
11:00 AM 51.8 °F 48.2 °F 88% 30.19 in 1.0 mi East 17.3 mph 23.0 mph N/A   Overcast
11:09 AM - - N/A% - 2.0 mi East 15.0 mph 21.9 mph N/A   Overcast
12:00 PM 50.0 °F 48.2 °F 94% 30.19 in 2.5 mi East 17.3 mph 24.2 mph N/A   Overcast
1:00 PM 51.8 °F 48.2 °F 88% 30.19 in 2.0 mi East 16.1 mph 24.2 mph N/A   Overcast
2:00 PM 51.8 °F 48.2 °F 88% 30.19 in 2.0 mi East 16.1 mph 21.9 mph N/A   Overcast
2:20 PM - - N/A% - 3.0 mi East 11.5 mph 20.7 mph N/A   Overcast
3:00 PM 52 °F 48 °F 83% 30.19 in 3 mi East 11.5 mph - -   Mist
3:00 PM 51.8 °F 48.2 °F 88% 30.19 in 3.0 mi East 15.0 mph - N/A   Overcast
3:55 PM - - N/A% - 2.0 mi East 12.7 mph 18.4 mph N/A   Overcast
4:00 PM 51.8 °F 48.2 °F 88% 30.19 in 1.5 mi East 12.7 mph 19.6 mph N/A   Overcast
5:00 PM 51.8 °F 48.2 °F 88% 30.19 in 1.0 mi East 15.0 mph - N/A   Overcast
5:11 PM - - N/A% - 1.0 mi East 12.7 mph - N/A   Light Drizzle
5:17 PM - - N/A% - 0.8 mi East 13.8 mph - N/A   Light Drizzle
6:00 PM 51.8 °F 50.0 °F 94% 30.20 in 0.8 mi East 13.8 mph 20.7 mph N/A   Light Drizzle
7:00 PM 51.8 °F 48.2 °F 88% 30.22 in 2.0 mi East 15.0 mph 32.2 mph N/A   Light Drizzle
8:00 PM 51.8 °F 48.2 °F 88% 30.22 in 3.0 mi East 16.1 mph 23.0 mph N/A   Light Drizzle
9:00 PM 52 °F 49 °F 85% 30.24 in 4 mi ESE 17.3 mph - - Rain Light Drizzle
9:00 PM 51.8 °F 48.2 °F 88% 30.24 in 4.0 mi East 16.1 mph 25.3 mph N/A   Light Drizzle
10:00 PM 51.8 °F 50.0 °F 94% 30.24 in 2.0 mi ESE 16.1 mph 21.9 mph N/A   Light Drizzle
11:00 PM 51.8 °F 48.2 °F 88% 30.26 in 2.0 mi ESE 20.7 mph - N/A   Light Drizzle